Carnival Glory — 3FPS9 — position and weather

sailwx.info

Track history (hours):
 
Tides and Currents Weather Stations Pressure Air Temp Water Temp Dewpoint Dewpoint Depression Visibility Wind Speed Wind Dir Waves Ship Positions

Carnival Glory

Operator: Carnival Cruise Lines

Last reported at 2018-May-27 00:01 UTC. Time now 2018-May-27 15:52 UTC.
Position N 26°15' W 079°16'.

Type: Passenger vessel. MMSI: 357659000.

Date/timePositionNaut miles runAvg speedWind from/ knotsBaromVisibWave heightAir tempDewpointWater temp
2018-May-27 00:01N 26°15' W 079°16'015.2
2018-May-27 00:00N 26°15' W 079°17'5394.8
2018-May-27 00:00N 26°12' W 079°12'1123.2 120 / 301010.910.8 25.022.028.0
2018-May-26 23:30N 26°12' W 079°25'816.6
2018-May-26 23:00N 26°07' W 079°32'817.1
2018-May-26 22:30N 26°02' W 079°40'917.3
2018-May-26 22:00N 25°57' W 079°48'917.2
2018-May-26 21:30N 25°52' W 079°56'815.3
2018-May-26 21:00N 25°49' W 080°04'5 9.7
2018-May-26 20:30N 25°45' W 080°07'3 6.6
2018-May-26 20:00N 25°47' W 080°10'0 0.0
2018-May-26 19:27N 25°47' W 080°10'0 0.0
2018-May-26 18:57N 25°47' W 080°10'0 0.0
2018-May-26 18:27N 25°47' W 080°10'0 0.0
2018-May-26 17:57N 25°47' W 080°10'0 0.0
2018-May-26 17:27N 25°47' W 080°10'0 0.0
2018-May-26 16:57N 25°47' W 080°10'0 0.0
2018-May-26 16:27N 25°47' W 080°10'0 0.0
2018-May-26 15:57N 25°47' W 080°10'0 0.0
2018-May-26 15:27N 25°47' W 080°10'0 0.0
2018-May-26 14:57N 25°47' W 080°10'0 0.0
2018-May-26 14:27N 25°47' W 080°10'0 0.0
2018-May-26 13:57N 25°47' W 080°10'0 0.0
2018-May-26 13:27N 25°47' W 080°10'0 0.0
2018-May-26 12:57N 25°47' W 080°10'0 0.0
2018-May-26 12:27N 25°47' W 080°10'0 0.0
2018-May-26 11:57N 25°47' W 080°10'0 0.0
2018-May-26 11:27N 25°47' W 080°10'0 0.0
2018-May-26 10:57N 25°47' W 080°10'0 0.0
2018-May-26 10:27N 25°47' W 080°10'0 0.0
2018-May-26 09:57N 25°47' W 080°10'0 0.0
2018-May-26 09:30N 25°47' W 080°10'1 1.8
2018-May-26 09:00N 25°47' W 080°11'3 6.8
2018-May-26 08:30N 25°46' W 080°08'5 9.5
2018-May-26 08:00N 25°47' W 080°02'510.0
2018-May-26 07:30N 25°45' W 079°58'714.4
2018-May-26 07:00N 25°42' W 079°50'918.7
2018-May-26 06:30N 25°33' W 079°46'7521.3
2018-May-26 03:00N 24°24' W 080°18'6120.3 170 / 281013.9 5.4 26.023.128.0
2018-May-26 00:00N 23°48' W 081°12'270 9.3 150 / 251012.6 5.4 27.025.628.0
2018-May-24 19:00N 19°18' W 081°18'404 8.1 090 / 251012.9 5.4 27.024.128.0
2018-May-22 17:00N 17°24' W 088°06'163 9.6 360 / 151008.910.8 30.025.828.0
2018-May-22 00:00N 19°54' W 087°00'2220.1 090 / 301009.410.8 27.022.628.0
2018-May-21 22:54N 20°15' W 087°06'717.6
2018-May-21 22:30N 20°22' W 087°05'815.5
2018-May-21 22:00N 20°29' W 087°01'2 4.8
2018-May-21 21:30N 20°29' W 086°59'0 0.0
2018-May-21 20:57N 20°29' W 086°59'0 0.0
2018-May-21 20:30N 20°29' W 086°59'0 0.0
2018-May-21 20:00N 20°29' W 086°59'0 0.0
2018-May-21 19:30N 20°29' W 086°59'0 0.0
2018-May-21 18:57N 20°29' W 086°59'0 0.0
2018-May-21 18:30N 20°29' W 086°59'0 0.0
2018-May-21 18:00N 20°29' W 086°59'0 0.0
2018-May-21 17:30N 20°29' W 086°59'0 0.0
2018-May-21 17:00N 20°29' W 086°59'0 0.0
2018-May-21 16:30N 20°29' W 086°59'0 0.0
2018-May-21 16:00N 20°29' W 086°59'0 0.0
2018-May-21 15:30N 20°29' W 086°59'0 0.0
2018-May-21 15:00N 20°29' W 086°59'0 0.0
2018-May-21 14:30N 20°29' W 086°59'0 0.0
2018-May-21 14:00N 20°29' W 086°59'0 0.0
2018-May-21 13:30N 20°29' W 086°59'0 0.0
2018-May-21 13:00N 20°29' W 086°59'0 0.0
2018-May-21 12:30N 20°29' W 086°59'0 0.0
2018-May-21 12:00N 20°29' W 086°59'0 0.0
2018-May-21 11:31N 20°29' W 086°59'0 0.8
2018-May-21 11:01N 20°29' W 086°59'3 6.4
2018-May-21 10:31N 20°32' W 086°58'610.7
2018-May-21 09:59N 20°37' W 086°55'10713.3
2018-May-21 02:00N 21°48' W 085°30'7017.5 100 / 251011.910.8 26.021.525.0
2018-May-20 22:00N 22°42' W 084°42'13615.1 080 / 101012.710.8 27.024.128.0
2018-May-20 13:00N 23°30' W 082°24'2424.4 120 / 201014.927.0 28.025.227.0
2018-May-20 12:00N 23°48' W 082°06'14813.1 120 / 151015.110.8 27.024.128.0
2018-May-20 00:44N 25°09' W 079°50'313.6
2018-May-20 00:31N 25°12' W 079°48'713.2
2018-May-20 00:01N 25°18' W 079°46'3196.2
2018-May-20 00:00N 25°18' W 079°42'714.9 140 / 251016.110.8 27.024.128.0
2018-May-19 23:31N 25°24' W 079°46'612.7
2018-May-19 23:01N 25°31' W 079°46'612.6
2018-May-19 22:31N 25°37' W 079°47'713.5
2018-May-19 22:01N 25°41' W 079°53'713.9
2018-May-19 21:30N 25°45' W 079°59'510.6
2018-May-19 21:01N 25°46' W 080°05'5 9.6
2018-May-19 20:30N 25°47' W 080°10'0 0.3
2018-May-19 19:59N 25°47' W 080°10'0 0.0
2018-May-19 19:29N 25°47' W 080°10'0 0.0
2018-May-19 18:59N 25°47' W 080°10'0 0.0
2018-May-19 18:29N 25°47' W 080°10'0 0.0
2018-May-19 17:56N 25°47' W 080°10'0 0.0
2018-May-19 17:29N 25°47' W 080°10'0 0.0
2018-May-19 16:59N 25°47' W 080°10'0 0.0
2018-May-19 16:29N 25°47' W 080°10'0 0.0
2018-May-19 15:59N 25°47' W 080°10'0 0.0
2018-May-19 15:29N 25°47' W 080°10'0 0.0
2018-May-19 14:59N 25°47' W 080°10'0 0.0
2018-May-19 14:29N 25°47' W 080°10'0 0.0
2018-May-19 13:59N 25°47' W 080°10'0 0.0
2018-May-19 13:29N 25°47' W 080°10'0 0.0
2018-May-19 12:56N 25°47' W 080°10'0 0.0
2018-May-19 12:29N 25°47' W 080°10'0 0.0
2018-May-19 11:59N 25°47' W 080°10'0 0.0
2018-May-19 11:29N 25°47' W 080°10'0 0.0
2018-May-19 10:53N 25°47' W 080°10'0 0.0
2018-May-19 10:29N 25°47' W 080°10'0 0.0
2018-May-19 09:59N 25°47' W 080°10'0 0.3
2018-May-19 09:30N 25°47' W 080°10'1 1.4
2018-May-19 09:00N 25°46' W 080°10'5 9.6
2018-May-19 08:30N 25°46' W 080°04'5 9.7
2018-May-19 08:01N 25°46' W 079°59'611.6
2018-May-19 07:30N 25°43' W 079°54'1122.0
2018-May-19 07:00N 25°33' W 079°48'1122.6
2018-May-19 06:30N 25°23' W 079°43'15921.1
2018-May-18 23:00N 22°54' W 078°42'15419.3 170 / 151013.910.8 26.021.528.0
2018-May-18 15:00N 21°36' W 076°18'10921.8 120 / 201014.9 5.4 28.023.725.0
2018-May-18 10:00N 20°54' W 074°30'30312.6 110 / 251013.210.8 26.019.928.0
2018-May-17 10:00N 19°36' W 069°18'   120 / 231015.910.8 26.021.528.0
Track history (hours):
 
Tides and Currents Weather Stations Pressure Air Temp Water Temp Dewpoint Dewpoint Depression Visibility Wind Speed Wind Dir Waves Ship Positions

Carnival Glory

Operator: Carnival Cruise Lines

Last reported at 2018-May-27 00:01 UTC. Time now 2018-May-27 15:52 UTC.
Position N 26°15' W 079°16'.

Type: Passenger vessel. MMSI: 357659000.

Date/timePositionNaut miles runAvg speedWind from/ knotsBaromVisibWave heightAir tempDewpointWater temp
2018-May-27 00:01N 26°15' W 079°16'015.2
2018-May-27 00:00N 26°15' W 079°17'5394.8
2018-May-27 00:00N 26°12' W 079°12'1123.2 120 / 301010.910.8 25.022.028.0
2018-May-26 23:30N 26°12' W 079°25'816.6
2018-May-26 23:00N 26°07' W 079°32'817.1
2018-May-26 22:30N 26°02' W 079°40'917.3
2018-May-26 22:00N 25°57' W 079°48'917.2
2018-May-26 21:30N 25°52' W 079°56'815.3
2018-May-26 21:00N 25°49' W 080°04'5 9.7
2018-May-26 20:30N 25°45' W 080°07'3 6.6
2018-May-26 20:00N 25°47' W 080°10'0 0.0
2018-May-26 19:27N 25°47' W 080°10'0 0.0
2018-May-26 18:57N 25°47' W 080°10'0 0.0
2018-May-26 18:27N 25°47' W 080°10'0 0.0
2018-May-26 17:57N 25°47' W 080°10'0 0.0
2018-May-26 17:27N 25°47' W 080°10'0 0.0
2018-May-26 16:57N 25°47' W 080°10'0 0.0
2018-May-26 16:27N 25°47' W 080°10'0 0.0
2018-May-26 15:57N 25°47' W 080°10'0 0.0
2018-May-26 15:27N 25°47' W 080°10'0 0.0
2018-May-26 14:57N 25°47' W 080°10'0 0.0
2018-May-26 14:27N 25°47' W 080°10'0 0.0
2018-May-26 13:57N 25°47' W 080°10'0 0.0
2018-May-26 13:27N 25°47' W 080°10'0 0.0
2018-May-26 12:57N 25°47' W 080°10'0 0.0
2018-May-26 12:27N 25°47' W 080°10'0 0.0
2018-May-26 11:57N 25°47' W 080°10'0 0.0
2018-May-26 11:27N 25°47' W 080°10'0 0.0
2018-May-26 10:57N 25°47' W 080°10'0 0.0
2018-May-26 10:27N 25°47' W 080°10'0 0.0
2018-May-26 09:57N 25°47' W 080°10'0 0.0
2018-May-26 09:30N 25°47' W 080°10'1 1.8
2018-May-26 09:00N 25°47' W 080°11'3 6.8
2018-May-26 08:30N 25°46' W 080°08'5 9.5
2018-May-26 08:00N 25°47' W 080°02'510.0
2018-May-26 07:30N 25°45' W 079°58'714.4
2018-May-26 07:00N 25°42' W 079°50'918.7
2018-May-26 06:30N 25°33' W 079°46'7521.3
2018-May-26 03:00N 24°24' W 080°18'6120.3 170 / 281013.9 5.4 26.023.128.0
2018-May-26 00:00N 23°48' W 081°12'270 9.3 150 / 251012.6 5.4 27.025.628.0
2018-May-24 19:00N 19°18' W 081°18'404 8.1 090 / 251012.9 5.4 27.024.128.0
2018-May-22 17:00N 17°24' W 088°06'163 9.6 360 / 151008.910.8 30.025.828.0
2018-May-22 00:00N 19°54' W 087°00'2220.1 090 / 301009.410.8 27.022.628.0
2018-May-21 22:54N 20°15' W 087°06'717.6
2018-May-21 22:30N 20°22' W 087°05'815.5
2018-May-21 22:00N 20°29' W 087°01'2 4.8
2018-May-21 21:30N 20°29' W 086°59'0 0.0
2018-May-21 20:57N 20°29' W 086°59'0 0.0
2018-May-21 20:30N 20°29' W 086°59'0 0.0
2018-May-21 20:00N 20°29' W 086°59'0 0.0
2018-May-21 19:30N 20°29' W 086°59'0 0.0
2018-May-21 18:57N 20°29' W 086°59'0 0.0
2018-May-21 18:30N 20°29' W 086°59'0 0.0
2018-May-21 18:00N 20°29' W 086°59'0 0.0
2018-May-21 17:30N 20°29' W 086°59'0 0.0
2018-May-21 17:00N 20°29' W 086°59'0 0.0
2018-May-21 16:30N 20°29' W 086°59'0 0.0
2018-May-21 16:00N 20°29' W 086°59'0 0.0
2018-May-21 15:30N 20°29' W 086°59'0 0.0
2018-May-21 15:00N 20°29' W 086°59'0 0.0
2018-May-21 14:30N 20°29' W 086°59'0 0.0
2018-May-21 14:00N 20°29' W 086°59'0 0.0
2018-May-21 13:30N 20°29' W 086°59'0 0.0
2018-May-21 13:00N 20°29' W 086°59'0 0.0
2018-May-21 12:30N 20°29' W 086°59'0 0.0
2018-May-21 12:00N 20°29' W 086°59'0 0.0
2018-May-21 11:31N 20°29' W 086°59'0 0.8
2018-May-21 11:01N 20°29' W 086°59'3 6.4
2018-May-21 10:31N 20°32' W 086°58'610.7
2018-May-21 09:59N 20°37' W 086°55'10713.3
2018-May-21 02:00N 21°48' W 085°30'7017.5 100 / 251011.910.8 26.021.525.0
2018-May-20 22:00N 22°42' W 084°42'13615.1 080 / 101012.710.8 27.024.128.0
2018-May-20 13:00N 23°30' W 082°24'2424.4 120 / 201014.927.0 28.025.227.0
2018-May-20 12:00N 23°48' W 082°06'14813.1 120 / 151015.110.8 27.024.128.0
2018-May-20 00:44N 25°09' W 079°50'313.6
2018-May-20 00:31N 25°12' W 079°48'713.2
2018-May-20 00:01N 25°18' W 079°46'3196.2
2018-May-20 00:00N 25°18' W 079°42'714.9 140 / 251016.110.8 27.024.128.0
2018-May-19 23:31N 25°24' W 079°46'612.7
2018-May-19 23:01N 25°31' W 079°46'612.6
2018-May-19 22:31N 25°37' W 079°47'713.5
2018-May-19 22:01N 25°41' W 079°53'713.9
2018-May-19 21:30N 25°45' W 079°59'510.6
2018-May-19 21:01N 25°46' W 080°05'5 9.6
2018-May-19 20:30N 25°47' W 080°10'0 0.3
2018-May-19 19:59N 25°47' W 080°10'0 0.0
2018-May-19 19:29N 25°47' W 080°10'0 0.0
2018-May-19 18:59N 25°47' W 080°10'0 0.0
2018-May-19 18:29N 25°47' W 080°10'0 0.0
2018-May-19 17:56N 25°47' W 080°10'0 0.0
2018-May-19 17:29N 25°47' W 080°10'0 0.0
2018-May-19 16:59N 25°47' W 080°10'0 0.0
2018-May-19 16:29N 25°47' W 080°10'0 0.0
2018-May-19 15:59N 25°47' W 080°10'0 0.0
2018-May-19 15:29N 25°47' W 080°10'0 0.0
2018-May-19 14:59N 25°47' W 080°10'0 0.0
2018-May-19 14:29N 25°47' W 080°10'0 0.0
2018-May-19 13:59N 25°47' W 080°10'0 0.0
2018-May-19 13:29N 25°47' W 080°10'0 0.0
2018-May-19 12:56N 25°47' W 080°10'0 0.0
2018-May-19 12:29N 25°47' W 080°10'0 0.0
2018-May-19 11:59N 25°47' W 080°10'0 0.0
2018-May-19 11:29N 25°47' W 080°10'0 0.0
2018-May-19 10:53N 25°47' W 080°10'0 0.0
2018-May-19 10:29N 25°47' W 080°10'0 0.0
2018-May-19 09:59N 25°47' W 080°10'0 0.3
2018-May-19 09:30N 25°47' W 080°10'1 1.4
2018-May-19 09:00N 25°46' W 080°10'5 9.6
2018-May-19 08:30N 25°46' W 080°04'5 9.7
2018-May-19 08:01N 25°46' W 079°59'611.6
2018-May-19 07:30N 25°43' W 079°54'1122.0
2018-May-19 07:00N 25°33' W 079°48'1122.6
2018-May-19 06:30N 25°23' W 079°43'15921.1
2018-May-18 23:00N 22°54' W 078°42'15419.3 170 / 151013.910.8 26.021.528.0
2018-May-18 15:00N 21°36' W 076°18'10921.8 120 / 201014.9 5.4 28.023.725.0
2018-May-18 10:00N 20°54' W 074°30'30312.6 110 / 251013.210.8 26.019.928.0
2018-May-17 10:00N 19°36' W 069°18'   120 / 231015.910.8 26.021.528.0

Dump ship's entire track history